EHI
0 0 0 0 0 0 0 0 0 1 1 1 1 2 7 16 27 37 42 43 39 34 34 36 37 35 29 24 23 22 22 25 27 27 25 23 18 12 9 7 6 6 6 6
0 0 0 0 0 0 0 0 0 0 1 1 1 2 5 12 24 35 40 39 36 34 36 39 41 39 33 29 25 23 21 21 21 22 22 21 17 12 10 9 7 5 4 4
0 0 0 0 0 0 0 0 0 0 0 0 0 1 2 7 17 28 35 37 35 35 37 40 41 40 37 33 27 20 17 16 16 17 18 18 17 13 11 10 7 5 3 2
0 0 0 0 0 0 0 0 0 0 0 0 0 0 1 4 9 19 31 35 36 35 33 33 34 34 34 31 24 18 16 15 15 16 18 19 16 12 9 8 8 7 5 3
0 0 0 0 0 0 0 0 0 0 0 0 0 0 1 2 4 11 21 28 30 29 26 24 25 26 26 24 21 18 18 18 18 20 23 23 19 13 10 10 10 8 5 2
0 0 0 0 0 0 0 0 0 0 0 0 0 0 0 1 2 5 12 17 20 21 19 18 17 17 17 16 16 18 21 26 30 33 34 33 30 25 21 16 11 6 3 2
0 0 0 0 0 0 0 0 0 0 0 0 0 0 0 0 1 4 7 10 11 11 11 11 10 9 8 8 10 15 23 34 43 45 46 46 43 38 32 24 14 6 2 1
0 0 0 0 0 0 0 0 0 0 0 0 0 0 0 0 1 2 4 4 4 4 4 4 5 4 3 4 7 13 22 34 43 45 47 49 48 44 40 34 23 13 6 3
0 0 0 0 0 0 0 0 0 0 0 0 0 0 0 0 0 1 1 1 1 1 1 2 2 2 3 5 7 11 19 29 35 36 38 40 42 44 45 44 36 26 19 13
0 0 0 0 0 0 0 0 0 0 0 0 0 0 1 0 0 0 0 0 0 0 0 1 2 3 4 6 7 10 15 22 25 27 27 28 32 39 45 47 42 36 30 26
0 0 0 0 0 0 0 0 0 0 0 0 0 0 0 0 0 0 0 0 0 0 0 1 1 2 4 5 6 8 10 13 15 16 17 19 23 30 38 41 39 34 31 30
0 0 0 0 0 0 0 0 0 0 0 0 0 0 0 0 0 0 0 0 0 0 0 0 0 1 1 3 3 4 5 5 7 8 9 11 16 21 26 29 30 28 25 24
0 0 0 0 0 0 0 0 0 0 0 0 0 0 0 0 0 0 0 0 0 0 0 0 0 0 0 1 1 1 1 1 2 3 5 7 10 13 15 17 19 19 18 17
0 0 0 0 0 0 0 0 0 0 0 0 0 0 0 0 0 0 0 0 0 0 0 0 0 0 0 0 0 0 0 0 1 1 2 4 5 6 8 8 9 11 12 11
0 0 0 0 0 0 0 0 0 0 0 0 0 0 0 0 0 0 0 0 0 0 0 0 0 0 0 0 0 0 0 0 0 0 1 1 2 2 3 3 4 6 8 9
0 0 0 0 0 0 0 0 0 0 0 0 0 0 0 0 0 0 0 0 0 0 0 0 0 0 0 0 0 0 0 0 0 0 0 0 0 1 1 1 1 2 4 6
0 0 0 0 0 0 0 0 0 0 0 0 0 0 0 0 0 0 0 0 0 0 0 0 0 0 0 0 0 0 0 0 0 0 0 0 0 0 0 0 0 0 1 2
0 0 0 0 0 0 0 0 0 0 0 0 0 0 0 0 0 0 0 0 0 0 0 0 0 0 0 0 0 0 0 0 0 0 0 0 0 0 0 0 0 0 0 0
0 0 0 0 0 0 0 0 0 0 0 0 0 0 0 0 0 0 0 0 0 0 0 0 0 0 0 0 0 0 0 0 0 0 0 0 0 0 0 0 0 0 0 0
0 0 0 0 0 0 0 0 0 0 0 0 0 0 0 0 0 0 0 0 0 0 0 0 0 0 0 0 0 0 0 0 0 0 0 0 0 0 0 0 0 0 0 0
0 0 0 0 0 0 0 0 0 0 0 0 0 0 0 0 0 0 0 0 0 0 0 0 0 0 0 0 0 0 0 0 0 0 0 0 0 0 0 0 0 0 0 0
0 0 0 0 0 0 0 0 0 0 0 0 0 0 0 0 0 0 0 0 0 0 0 0 0 0 0 0 0 0 0 0 0 0 0 0 0 0 0 0 0 0 0 0
0 0 0 0 0 0 0 0 0 0 0 0 0 0 0 0 0 0 0 0 0 0 0 0 0 0 0 0 0 0 0 0 0 0 0 0 0 0 0 0 0 0 0 0
0 0 0 0 0 0 0 0 0 0 0 0 0 0 0 0 0 0 0 0 0 0 0 0 0 0 0 0 0 0 0 0 0 0 0 0 0 0 0 0 0 0 0 0
0 0 0 0 0 0 0 0 0 0 0 0 0 0 0 0 0 0 0 0 0 0 0 0 0 0 0 0 0 0 0 0 0 0 0 0 0 0 0 0 0 0 0 0
0 0 0 0 0 0 0 0 0 0 0 0 0 0 0 0 0 0 0 0 0 0 0 0 0 0 0 0 0 0 0 0 0 0 0 0 0 0 0 0 0 0 0 0
Wind_Speed
3 6 1 2 2 3 2 4 3 1 2 3 1 0 2 2 1 2 3 4 5 4 5 5 5 5 6 7 7 6 6 6 5 3 3 3 3 4 4 4 5 6 7 7
6 2 3 1 2 4 4 5 3 3 1 3 2 2 1 2 1 1 1 2 3 4 5 5 5 5 6 6 7 7 7 6 6 4 3 2 3 4 3 4 4 5 6 7
2 6 2 3 4 4 3 3 2 3 1 5 6 7 6 4 2 1 1 1 2 3 4 4 4 4 4 4 5 4 5 5 5 4 4 3 3 4 3 3 3 4 6 7
1 2 1 3 2 4 1 2 4 6 8 5 4 9 5 3 2 2 2 2 2 2 2 2 2 2 2 2 2 3 4 4 4 5 5 5 4 4 4 4 3 5 5 6
1 2 3 2 2 4 4 2 5 8 10 10 7 10 2 4 1 4 4 3 2 2 2 2 2 2 2 1 1 2 3 4 4 5 5 6 6 4 4 4 4 5 5 5
2 1 3 3 1 2 1 5 7 9 9 9 2 7 2 5 5 5 5 5 4 4 4 4 5 4 4 3 3 3 4 4 5 6 7 7 7 6 6 6 5 5 4 4
2 3 2 3 6 4 6 9 7 6 5 2 2 7 4 8 7 7 7 7 7 7 6 7 7 7 6 6 5 5 5 5 6 7 8 8 8 8 8 8 6 6 6 5
3 1 2 3 7 8 7 9 8 9 8 5 4 5 7 8 8 8 8 9 9 10 10 9 9 9 8 8 7 6 6 6 6 6 7 8 8 8 7 7 8 7 6 6
5 4 2 2 5 8 8 7 7 10 12 11 6 3 8 7 8 8 9 10 11 11 11 12 12 12 11 11 10 9 8 7 7 7 7 7 8 9 9 9 9 8 7 6
6 8 5 2 5 2 5 6 5 7 8 9 6 6 3 6 5 7 8 9 10 10 11 11 11 11 11 11 10 10 10 9 9 8 8 7 8 8 9 10 10 9 9 8
6 8 8 4 4 6 3 3 5 7 7 10 11 3 8 6 5 5 7 8 9 10 11 11 11 11 11 11 11 10 10 10 10 10 9 9 9 9 9 9 10 10 10 9
4 8 9 7 1 1 4 5 6 7 8 8 12 2 9 7 5 5 6 7 8 9 10 10 11 11 11 11 11 11 11 11 11 11 10 10 10 10 10 10 10 10 10 10
3 7 10 6 5 6 4 4 6 7 9 10 12 2 8 5 4 5 6 8 8 9 10 10 11 11 11 12 12 11 11 11 11 11 12 11 11 11 11 11 11 10 11 11
5 9 11 13 10 8 7 5 6 8 9 10 10 2 5 3 4 6 8 9 10 10 10 11 11 11 11 11 12 12 12 12 12 12 12 12 12 12 12 12 11 11 11 11
5 9 10 10 9 7 6 7 7 7 9 10 10 4 5 5 7 9 10 11 12 11 11 12 12 12 12 12 12 12 13 12 12 12 12 12 12 12 12 12 12 12 11 11
4 8 9 10 6 4 1 5 6 5 7 8 6 2 4 6 8 10 11 12 12 12 13 14 14 14 14 14 14 14 14 14 13 14 14 13 12 13 12 13 12 12 11 11
5 6 8 8 1 7 2 7 8 5 6 8 8 5 8 11 12 13 13 13 13 14 16 17 17 16 16 16 16 16 16 15 15 15 15 14 14 14 13 13 13 13 12 11
5 6 6 8 7 7 8 7 7 6 5 4 4 7 10 12 14 15 15 13 14 17 19 19 18 18 18 18 17 17 17 17 17 16 16 15 15 15 14 14 14 13 11 10
4 5 6 7 9 3 6 6 8 9 8 3 6 11 14 15 18 16 10 13 18 20 19 19 19 20 19 19 18 18 18 18 18 17 17 16 16 16 16 15 14 13 12 11
2 4 7 7 10 6 6 7 8 9 6 3 11 16 18 19 17 14 17 20 21 20 19 19 20 21 20 19 18 19 19 19 18 18 17 17 16 17 17 16 15 13 11 11
7 5 6 8 7 5 5 9 10 9 9 13 16 17 18 19 18 20 22 21 21 21 21 21 21 19 19 19 19 19 19 19 19 18 18 17 17 17 17 16 14 13 12 11
7 6 6 7 6 4 7 9 8 10 13 15 17 18 20 21 22 22 22 22 22 22 22 22 20 19 18 19 19 20 20 19 19 18 18 17 17 16 15 15 14 13 12 12
4 6 5 5 5 5 6 8 9 11 15 17 18 20 21 23 23 24 23 23 23 23 22 21 21 21 19 19 19 20 19 19 18 18 18 17 17 16 15 15 15 13 11 10
4 1 3 4 3 6 9 9 10 13 16 19 20 21 22 24 24 25 23 22 22 23 22 20 21 21 20 19 19 19 19 18 18 18 17 16 16 15 15 12 12 11 10 10
3 1 4 6 6 9 7 11 15 17 18 20 21 22 23 24 25 25 23 23 22 21 21 20 20 21 22 20 19 19 18 17 18 18 16 15 14 14 13 12 11 12 11 10
1 2 5 6 8 11 14 15 18 19 19 21 22 23 23 23 25 25 23 22 22 22 22 21 21 22 22 20 20 19 17 16 17 15 15 12 11 10 10 11 11 11 13 11
Wind_Direction
242 253 258 41 308 336 300 265 250 49 23 303 275 168 76 65 110 140 158 172 167 160 147 152 152 157 162 163 168 178 185 182 193 203 225 243 259 272 280 285 299 297 296 296
223 158 45 350 220 228 233 243 225 155 81 294 270 232 135 70 49 38 105 181 170 167 158 151 149 151 152 157 168 175 184 186 198 200 227 258 289 286 295 301 305 299 302 302
356 48 58 206 195 214 225 280 318 315 265 227 258 225 178 147 128 111 144 172 170 164 157 149 150 149 149 150 164 175 185 192 205 211 222 229 238 251 257 281 284 301 304 299
63 66 248 216 200 275 234 17 312 295 280 273 274 275 172 158 150 106 86 110 126 126 128 128 141 135 143 151 166 185 197 206 210 218 231 245 264 282 300 288 296 298 291 295
56 4 304 299 9 305 4 347 289 288 284 275 246 267 191 143 145 60 53 57 80 72 58 48 33 21 10 335 249 226 226 230 232 240 239 245 255 268 276 282 282 284 286 282
321 273 306 337 340 299 223 248 246 250 261 256 267 283 226 75 17 14 38 48 48 44 40 34 26 19 7 348 320 287 264 256 250 247 249 252 263 268 275 276 282 278 281 277
257 221 180 262 263 210 251 285 280 263 248 260 109 270 65 58 34 22 29 37 40 38 33 28 21 13 5 356 343 323 302 283 270 259 254 252 255 258 258 265 268 275 284 283
292 285 26 337 319 312 304 296 293 302 302 301 225 253 92 78 63 57 54 51 43 38 34 28 22 15 9 6 358 349 336 317 303 285 275 267 261 259 260 255 269 271 277 287
315 327 18 337 314 302 292 286 321 290 280 278 270 141 132 110 78 65 60 54 45 39 36 31 27 22 17 13 10 3 356 346 337 320 304 286 277 272 271 267 256 262 263 271
308 304 316 329 247 191 310 309 271 277 293 291 277 248 171 119 75 64 55 48 42 37 34 30 27 22 17 13 10 6 2 355 347 337 324 311 298 287 277 269 267 265 264 262
292 293 299 289 304 320 271 253 294 288 289 294 295 337 65 76 62 52 51 41 32 25 24 20 18 15 11 8 6 3 359 356 350 342 331 321 313 304 292 278 270 264 259 256
304 296 302 302 80 290 296 315 300 297 298 284 285 357 83 81 71 43 32 23 15 9 8 7 5 1 358 356 353 352 350 348 345 340 331 324 319 313 304 295 285 273 261 254
297 278 285 270 181 187 235 274 289 290 283 280 287 46 104 92 66 35 11 1 355 353 353 354 353 349 346 343 341 339 337 336 335 333 328 325 323 319 312 304 296 283 269 258
278 270 281 297 317 322 301 296 290 281 283 295 304 4 119 56 3 359 350 342 338 340 341 340 337 334 333 329 327 325 325 325 324 323 320 320 319 318 314 307 301 291 277 264
277 274 280 287 296 291 302 316 316 303 308 305 323 358 54 19 346 340 334 329 325 324 325 324 321 319 317 316 315 315 315 315 315 312 311 311 311 313 313 312 306 298 285 271
281 287 289 279 279 271 291 2 346 348 340 326 320 35 31 342 330 324 320 313 308 310 314 315 315 314 314 313 312 314 312 310 307 304 303 303 303 306 309 311 309 303 292 280
279 278 284 286 302 244 154 21 360 3 356 337 332 360 341 323 319 315 308 301 301 308 312 314 314 313 312 309 309 307 308 306 303 301 301 301 302 302 305 307 307 304 300 289
310 293 279 294 285 279 74 43 14 353 341 342 331 324 316 309 307 300 292 296 308 313 313 312 311 309 308 307 306 304 303 302 300 298 297 298 298 298 301 302 302 302 300 293
3 314 302 303 301 120 106 29 356 324 305 340 320 317 315 314 306 297 315 324 316 311 309 308 307 307 306 303 303 301 299 298 297 296 296 297 297 297 296 295 296 297 295 289
60 318 305 315 307 332 65 9 336 298 273 35 327 321 320 317 309 318 329 316 308 306 306 305 304 303 302 303 303 299 296 295 296 297 296 295 294 292 291 290 290 290 290 286
335 333 343 326 317 73 33 341 318 299 341 339 323 316 313 312 307 309 309 308 307 305 303 303 302 301 301 300 299 295 293 293 295 295 294 290 289 287 284 282 281 282 283 283
339 340 352 328 325 46 11 339 338 323 320 314 313 312 311 308 306 306 307 307 306 305 304 304 302 299 298 297 295 291 290 292 293 292 290 287 285 284 283 282 279 278 278 278
8 6 350 347 355 4 333 316 314 312 309 312 313 312 310 308 308 309 308 307 306 305 304 303 300 299 297 295 293 291 291 293 291 289 286 284 283 281 279 277 275 273 270 267
126 252 282 279 300 321 314 311 316 316 314 313 311 310 311 310 309 309 308 307 306 305 304 303 302 299 298 297 294 291 291 289 287 285 284 282 280 278 277 274 271 269 269 267
74 235 287 279 318 316 312 325 323 319 313 311 311 311 310 309 307 308 307 306 307 306 304 303 301 299 298 297 295 292 290 289 286 284 280 279 277 276 277 273 269 269 267 265
143 332 322 335 342 315 317 322 318 315 314 314 312 310 309 308 308 308 307 307 307 305 305 303 301 300 299 298 294 292 290 286 284 281 278 276 275 276 276 276 274 259 253 250